map of ADZ home
Great Circle Mapper logo
ADZ - Airport
Location
City:  San Andrés Island, San Andrés y Providencia, Colombia
Name:Gustavo Rojas Pinilla International Airport
Old (Alt.):Sesquicentenario
ICAO:SKSP
IATA:ADZ

Details
Type:Airport (Aerodrome, Airfield)
Use:International (customs port of entry)
Latitude:12°35'01"N (12.583683)
Longitude:81°42'39"W (-81.710918)
Elevation:19 ft (6 m)
Variation:3.45°W (WMM2015 magnetic declination)
-0.14° annual change
Runways:1
Longest:7808 × 148 ft (2380 × 45 m), paved

Time
Time Zone:UTC-5
Local Time:

Weather
METAR:SKSP 060100Z 00000KT 9999 FEW017 SCT200 29/26 A2980
TAF:SKSP 050500Z 050606 09008KT 9999 FEW020 SCT200 PROB40
TEMPO 0511/0514 RA SCT015TCU TX30/0518Z TN26/0511Z

Related Locations
Nearby:
Farthest:CCK: 12346 mi / 19868 km
West Island (Pulau Panjang) [Cocos (Keeling) Islands], CC

Find:

   beyond  
but within

Other Information
Maps:
NOTAMs:
Links:
Sources:

  
flag of Colombia
flag of San Andrés y Providencia
  

Sectional Chart

Flight Planning
at skyvector.com

Satellite Image

Google Maps Satellite view

 

Copyright © 2004-2016 Karl L. Swartz. All rights reserved.
The Great Circle Mapper name and logo are trademarks of the Great Circle Mapper.
All other trademarks mentioned herein belong to their respective owners.
Please see credits for attibutions and further copyright information.

  Follow gcmap on Facebook Follow gcmap on Twitter Follow gcmap on Google+ GCmap on LinkedIn

hCard Microformat

Geo Microformat